Regional Weather Roundup
Issued by NWS Charleston, SC

Current Version | Previous Version | Graphics & Text | Print | Product List | Glossary On
Versions: 1 2 3 4 5 6 7 8 9 10 11 12 13 14 15 16 17 18 19 20 21 22 23 24 25 26 27 28 29 30 31 32 33 34 35 36 37 38 39 40 41 42 43 44 45 46 47 48 49 50
000
ASUS42 KCHS 201610
RWRCHS

REGIONAL WEATHER ROUNDUP
NATIONAL WEATHER SERVICE CHARLESTON SC
1200 PM EDT SUN APR 20 2014

NOTE: "FAIR" INDICATES FEW OR NO CLOUDS BELOW 12,000 FEET WITH NO
SIGNIFICANT WEATHER AND/OR OBSTRUCTIONS TO VISIBILITY.

NOT ALL STATIONS ARE QUALITY CONTROLLED BY THE NATIONAL
WEATHER SERVICE. USE DATA WITH CAUTION...ESPECIALLY
DEWPOINT OBSERVATIONS.

SCZ027-030-031-034>040-042>050-201700-
...SOUTH CAROLINA...

CITY           SKY/WX    TMP DP  RH WIND       PRES   REMARKS
N CHARLESTON   CLOUDY    63  50  62 N13       30.11R
WATERFRONT PRK   N/A     61 N/A N/A S14G20      N/A
FORT JOHNSON   NOT AVBL
MOUNT PLEASANT FAIR     N/A N/A N/A N10G17    30.08S
JOHNS ISLAND   CLOUDY    61  55  82 N13       30.10S
PINOPOLIS        N/A     61  50  67 N16       30.04R
MONCKS CORNER  FAIR      63  54  72 NE12G20   30.12S
SUMMERVILLE    NOT AVBL
BEAUFORT MCAS  CLOUDY    57  54  88 NE15      30.13F
BEAUFORT ARPT  CLOUDY    55  55 100 N8        30.13F FOG
HILTON HEAD IS PTSUNNY   57  54  88 MISG      30.12F
GEORGETOWN     NOT AVBL
WALTERBORO     CLOUDY    61  48  63 N9        30.15F
ORANGEBURG     CLOUDY    60  41  49 N18G24    30.17F
BARNWELL       CLOUDY    61  45  55 NE10      30.20S
AIKEN          CLOUDY    63  45  51 N17G25    30.24S
MANNING        CLOUDY    63  32  31 NE12G25   30.15S
KINGSTREE      NOT AVBL
COLUMBIA       PTSUNNY   67  37  33 N12G21    30.20S
SUMTER         CLOUDY    63  42  46 N17       30.17S
FLORENCE       CLOUDY    62  40  44 NE17G26   30.17R
MYRTLE BEACH   PTSUNNY   59  50  72 N23G30    30.08F
N MYRTLE BEACH CLOUDY    59  51  75 N21G31    30.08S

$$

GAZ063-065-086>088-099>101-113>116-118-119-134-136>141-150-201700-
...GEORGIA...

CITY           SKY/WX    TMP DP  RH WIND       PRES   REMARKS
SAVANNAH ARPT  CLOUDY    59  52  77 N22G29    30.13S
HUNTER AAF     CLOUDY    59  53  79 N12G20    30.10S
FORT STEWART   CLOUDY    57  55  95 N13G20    30.12S
STATESBORO     NOT AVBL
SYLVANIA       CLOUDY    58  51  79 NE16G22   30.18S
CLAXTON        CLOUDY    59  55  88 NE8G18    30.16S
THOMSON        MOSUNNY   63  46  52 NE15G21   30.26S
AUGUSTA-BUSH   CLOUDY    63  42  46 NE14G22   30.21F
AUGUSTA-DANIEL CLOUDY    64  39  39 NE16G23   30.21F
SWAINSBORO     CLOUDY    59  52  77 NE10G21   30.19S
VIDALIA        CLOUDY    55  52  88 N6        30.18R
ALMA           CLOUDY    55  50  83 N7        30.17R
WAYCROSS       NOT AVBL
JESUP          CLOUDY    54  54 100 N7        30.15R
BRUNSWICK      CLOUDY    55  54  94 N8        30.14R
SAINT SIMONS   LGT RAIN  55  53  93 NW5       30.13S

$$

SCZ027-028-034-036>038-045-046-048>050-GAZ119-141-201700-
...LAKE AND SUPPLEMENTAL COASTAL OBSERVATIONS...

STATION/POSITION TIME  TEMP    WIND        PRES    WAVE   SWELL
                       AIR SEA DIR/SP/G            HT/PER HT/PER/DIR
                 (UTC) (F)     (DEG/KT/KT) (MB)    (FT/S) (FT/S/D)
UPR LAKE MARION  NOT AVBL
WINYAH BAY       1500   58      10/ 12     1018.0S
LAKE MURRAY      1500   62      20/  5/ 10 1022.4S
ACE BASIN NERRS  1500   55     360/  4     1020.0R
FORT PULASKI     1600   57 58  360/ 14/ 18 1020.0R
SAPELO ISLAND    1500   56     360/ 10     1019.0S

$$

ANZ835-935-AMZ111-154-330-350-352-354-374-450-454-472-201700-
...C-MAN AND BUOY OBSERVATIONS...

STATION/POSITION TIME  TEMP    WIND        PRES    WAVE   SWELL
                       AIR SEA DIR/SP/G            HT/PER HT/PER/DIR
                 (UTC) (F)     (DEG/KT/KT) (MB)    (FT/S) (FT/S/D)
FOLLY BEACH CMAN 1500   58     340/ 10/ 12 1019.1R
BUOY 41004       NOT AVBL
BUOY 41008       1600   58 63   20/ 17/ 23 1018.6R   6/ 6   2/ 90/ 9
5E ST. MARYS GA  1600      64                N/A     5/ 8   2/ 70/11
FRYING PAN BUOY  1600   58 69   20/ 29/ 37 1014.9R  10/ 7   3/ 70/11
BUOY 41025       1600   69 76   70/ 31/ 39 1015.5R  15/11
CAPE LOOKOUT NC  1500   56      10/ 20/ 25 1017.0S
BUOY 41002       NOT AVBL
BUOY 41010       1600   72 76  250/  8/ 10 1014.5F   6/ 8   7/ 60/ 8
BUOY 41012       NOT AVBL
ST AUGUSTINE FL  1600   58     350/ 15/ 17 1019.7R
CAPERS NEARSHORE NOT AVBL
FRIPP NEARSHORE  1500   57      10/ 17/ 19   N/A


$$



USA.gov is the U.S. government's official web portal to all federal, state and local government web resources and services.